When you browse on this site, cookies collect data to enhance your experience and personalize the content and advertising you see.
Visit our Privacy Policy to learn more. By continuing to use the site, you agree to this use of cookies and data.
  • In Hungary
  • List of Countries
  • For 7 days
  • Water Temperature
  • Satellite Maps
  • Weather Map
  • News
  • Weather Widgets
  • user-avatar
    Login

    Hourly Weather Gajvoron

    Today, 18 January, Friday

    Time Temperature Precipitation Wind Pressure Humidity
    00:00 -5°C° 0 mm 3 mps 746 mmHg 94%
    01:00 -5°C° 0 mm 2 mps 746 mmHg 93%
    02:00 -3°C° 0 mm 1 mps 745 mmHg 93%
    03:00 -5°C° 0 mm 2 mps 745 mmHg 92%
    04:00 -5°C° 0 mm 2 mps 745 mmHg 91%
    05:00 -5°C° 0 mm 2 mps 745 mmHg 91%
    06:00 -5°C° 0 mm 2 mps 745 mmHg 90%
    07:00 -5°C° 0 mm 2 mps 745 mmHg 89%
    08:00 -5°C° 0 mm 2 mps 745 mmHg 88%
    09:00 -4°C° 0 mm 2 mps 745 mmHg 89%
    10:00 -2°C° 0 mm 2 mps 745 mmHg 89%
    11:00 -1°C° 0 mm 3 mps 745 mmHg 89%
    12:00 0°C° 0 mm 3 mps 745 mmHg 92%
    13:00 0°C° 0 mm 3 mps 745 mmHg 95%
    14:00 +1°C° 0 mm 2 mps 744 mmHg 99%
    15:00 +1°C° 0 mm 2 mps 745 mmHg 95%
    16:00 +1°C° 0 mm 2 mps 745 mmHg 91%
    17:00 -1°C° 0 mm 2 mps 745 mmHg 88%
    18:00 -1°C° 0 mm 2 mps 745 mmHg 88%
    19:00 -2°C° 0 mm 2 mps 746 mmHg 88%
    20:00 -2°C° 0 mm 2 mps 746 mmHg 88%
    21:00 -1°C° 0 mm 2 mps 746 mmHg 91%
    22:00 -1°C° 0 mm 3 mps 747 mmHg 93%
    23:00 0°C° 0 mm 3 mps 747 mmHg 95%

    Tomorrow, 19 January, Saturday

    Time Temperature Precipitation Wind Pressure Humidity
    00:00 0°C° 0.1 mm 3 mps 747 mmHg 94%
    01:00 -1°C° 0.1 mm 4 mps 748 mmHg 93%
    02:00 -1°C° 0.1 mm 4 mps 748 mmHg 92%
    03:00 -2°C° 0 mm 4 mps 749 mmHg 92%
    04:00 -2°C° 0 mm 4 mps 750 mmHg 92%
    05:00 -3°C° 0 mm 4 mps 750 mmHg 92%
    06:00 -5°C° 0 mm 4 mps 751 mmHg 92%
    07:00 -7°C° 0 mm 4 mps 751 mmHg 92%
    08:00 -8°C° 0 mm 3 mps 752 mmHg 92%
    09:00 -7°C° 0 mm 3 mps 752 mmHg 91%
    10:00 -7°C° 0 mm 3 mps 753 mmHg 90%
    11:00 -6°C° 0 mm 3 mps 754 mmHg 89%
    12:00 -6°C° 0 mm 3 mps 754 mmHg 90%
    13:00 -5°C° 0 mm 3 mps 754 mmHg 90%
    14:00 -4°C° 0 mm 2 mps 754 mmHg 90%
    15:00 -5°C° 0 mm 2 mps 754 mmHg 90%
    16:00 -7°C° 0 mm 2 mps 754 mmHg 90%
    17:00 -8°C° 0 mm 2 mps 755 mmHg 90%
    18:00 -8°C° 0 mm 1 mps 755 mmHg 90%
    19:00 -8°C° 0 mm 1 mps 755 mmHg 89%
    20:00 -9°C° 0 mm 1 mps 755 mmHg 89%
    21:00 -10°C° 0 mm 1 mps 755 mmHg 89%
    22:00 -10°C° 0 mm 0 mps 755 mmHg 88%
    23:00 -10°C° 0 mm 0 mps 756 mmHg 88%

    Day after tomorrow, 20 January, Sunday

    Time Temperature Precipitation Wind Pressure Humidity
    00:00 -10°C° 0 mm 0 mps 756 mmHg 88%
    01:00 -10°C° 0 mm 0 mps 756 mmHg 87%
    02:00 -10°C° 0 mm 1 mps 755 mmHg 87%
    03:00 -10°C° 0 mm 1 mps 755 mmHg 87%
    04:00 -10°C° 0 mm 1 mps 755 mmHg 88%
    05:00 -10°C° 0 mm 2 mps 755 mmHg 88%
    06:00 -10°C° 0 mm 2 mps 755 mmHg 89%
    07:00 -9°C° 0 mm 2 mps 754 mmHg 89%
    08:00 -8°C° 0 mm 2 mps 754 mmHg 90%
    09:00 -9°C° 0 mm 3 mps 754 mmHg 89%
    10:00 -8°C° 0 mm 3 mps 754 mmHg 88%
    11:00 -7°C° 0 mm 3 mps 754 mmHg 88%
    12:00 -6°C° 0 mm 3 mps 753 mmHg 88%
    13:00 -7°C° 0 mm 4 mps 753 mmHg 88%
    14:00 -5°C° 0 mm 4 mps 752 mmHg 88%
    15:00 -5°C° 0 mm 3 mps 751 mmHg 90%
    16:00 -6°C° 0 mm 3 mps 751 mmHg 91%
    17:00 -6°C° 0 mm 3 mps 751 mmHg 93%
    18:00 -6°C° 0.2 mm 3 mps 750 mmHg 93%
    19:00 -5°C° 0.2 mm 3 mps 750 mmHg 94%
    20:00 -5°C° 0.2 mm 3 mps 750 mmHg 94%
    21:00 -5°C° 0.5 mm 3 mps 750 mmHg 95%
    22:00 -5°C° 0.5 mm 3 mps 749 mmHg 96%
    23:00 -4°C° 0.5 mm 2 mps 749 mmHg 97%

    21 January, Monday

    Time Temperature Precipitation Wind Pressure Humidity
    00:00 -4°C° 0.7 mm 2 mps 749 mmHg 97%
    01:00 -3°C° 0.7 mm 2 mps 749 mmHg 97%
    02:00 -3°C° 0.7 mm 2 mps 748 mmHg 98%
    03:00 -3°C° 0.3 mm 2 mps 748 mmHg 97%
    04:00 -3°C° 0.3 mm 2 mps 748 mmHg 97%
    05:00 -4°C° 0.3 mm 3 mps 748 mmHg 97%
    06:00 -5°C° 0.2 mm 4 mps 748 mmHg 96%
    07:00 -5°C° 0.2 mm 4 mps 749 mmHg 95%
    08:00 -6°C° 0.2 mm 5 mps 749 mmHg 94%
    09:00 -6°C° 0.1 mm 5 mps 749 mmHg 93%
    10:00 -6°C° 0.1 mm 5 mps 750 mmHg 92%
    11:00 -6°C° 0.1 mm 5 mps 751 mmHg 91%
    12:00 -6°C° 0 mm 5 mps 751 mmHg 91%
    13:00 -7°C° 0 mm 5 mps 751 mmHg 90%
    14:00 -7°C° 0 mm 5 mps 751 mmHg 90%
    15:00 -8°C° 0 mm 5 mps 752 mmHg 91%
    16:00 -8°C° 0 mm 4 mps 752 mmHg 91%
    17:00 -8°C° 0 mm 4 mps 753 mmHg 92%
    18:00 -9°C° 0 mm 4 mps 753 mmHg 91%
    19:00 -9°C° 0 mm 4 mps 754 mmHg 91%
    20:00 -10°C° 0 mm 4 mps 754 mmHg 90%
    21:00 -10°C° 0 mm 3 mps 754 mmHg 91%
    22:00 -13°C° 0 mm 3 mps 755 mmHg 92%
    23:00 -13°C° 0 mm 2 mps 755 mmHg 93%

    22 January, Tuesday

    Time Temperature Precipitation Wind Pressure Humidity
    00:00 -14°C° 0 mm 2 mps 755 mmHg 94%
    01:00 -13°C° 0 mm 1 mps 755 mmHg 95%
    02:00 -13°C° 0 mm 1 mps 755 mmHg 96%
    03:00 -14°C° 0 mm 1 mps 755 mmHg 97%
    04:00 -14°C° 0 mm 0 mps 755 mmHg 97%
    05:00 -15°C° 0 mm 0 mps 754 mmHg 98%
    06:00 -15°C° 0 mm 0 mps 754 mmHg 98%
    07:00 -15°C° 0 mm 1 mps 754 mmHg 97%
    08:00 -15°C° 0 mm 1 mps 754 mmHg 96%
    09:00 -13°C° 0 mm 1 mps 754 mmHg 95%
    10:00 -14°C° 0 mm 2 mps 754 mmHg 93%
    11:00 -12°C° 0 mm 2 mps 754 mmHg 91%
    12:00 -12°C° 0 mm 2 mps 754 mmHg 91%
    13:00 -10°C° 0 mm 2 mps 753 mmHg 90%
    14:00 -9°C° 0 mm 2 mps 753 mmHg 90%
    15:00 -10°C° 0 mm 2 mps 752 mmHg 91%
    16:00 -12°C° 0 mm 2 mps 752 mmHg 93%
    17:00 -13°C° 0 mm 2 mps 751 mmHg 94%
    18:00 -14°C° 0 mm 2 mps 751 mmHg 95%
    19:00 -14°C° 0 mm 2 mps 751 mmHg 96%
    20:00 -14°C° 0 mm 2 mps 750 mmHg 96%
    21:00 -14°C° 0 mm 2 mps 750 mmHg 96%
    22:00 -14°C° 0 mm 2 mps 750 mmHg 96%
    23:00 -13°C° 0 mm 2 mps 750 mmHg 96%

    23 January, Wednesday

    Time Temperature Precipitation Wind Pressure Humidity
    00:00 -13°C° 0 mm 3 mps 749 mmHg 95%
    01:00 -12°C° 0 mm 3 mps 749 mmHg 95%
    02:00 -11°C° 0 mm 4 mps 748 mmHg 94%
    03:00 -10°C° 0.2 mm 4 mps 748 mmHg 95%
    04:00 -10°C° 0.2 mm 4 mps 747 mmHg 95%
    05:00 -9°C° 0.2 mm 4 mps 747 mmHg 96%
    06:00 -9°C° 0.1 mm 4 mps 747 mmHg 96%
    07:00 -10°C° 0.1 mm 5 mps 747 mmHg 96%
    08:00 -8°C° 0.1 mm 5 mps 746 mmHg 95%
    09:00 -8°C° 0.1 mm 5 mps 746 mmHg 95%
    10:00 -8°C° 0.1 mm 6 mps 746 mmHg 95%
    11:00 -8°C° 0.1 mm 6 mps 746 mmHg 94%
    12:00 -6°C° 0.1 mm 6 mps 746 mmHg 94%
    13:00 -5°C° 0.1 mm 6 mps 745 mmHg 94%
    14:00 -5°C° 0.1 mm 6 mps 745 mmHg 94%
    15:00 -6°C° 0 mm 7 mps 744 mmHg 94%
    16:00 -6°C° 0 mm 7 mps 744 mmHg 93%
    17:00 -6°C° 0 mm 7 mps 744 mmHg 93%
    18:00 -6°C° 0.5 mm 7 mps 743 mmHg 93%
    19:00 -6°C° 0.5 mm 8 mps 743 mmHg 93%
    20:00 -6°C° 0.5 mm 8 mps 743 mmHg 94%
    21:00 -6°C° 0.3 mm 8 mps 742 mmHg 93%
    22:00 -6°C° 0.3 mm 7 mps 742 mmHg 93%
    23:00 -4°C° 0.3 mm 7 mps 742 mmHg 93%
    Show more